C/2020 T4 ( PanSTARRS )

Japanese version
Home page
Updated on February 21, 2021

---------------------------------------------------------------------

* Profile

Discovery Date October 15, 2020
Magnitude 21.0 mag
Discoverer Pan-STARRS 1 telescope (Haleakala)

* Pictures

* Orbital Elements

Epoch 2021 July 5.0 TT = JDT 2459400.5
T 2021 July 5.24710 TT                                  Rudenko
q   2.1919645            (2000.0)            P               Q
z  -0.0000669      Peri.   79.60140     +0.03262584     -0.63906151
 +/-0.0000110      Node    50.62048     -0.19929506     -0.75759185
e   1.0001466      Incl.   83.81653     +0.97939626     -0.13287206
From 164 observations 2020 Sept. 26-2021 Jan. 18, mean residual 0".6.

* Magnitudes Graph

        m1 = 12.0 + 5 log d + 10.0 log r

---------------------------------------------------------------------

The orbital elements are published on M.P.E.C. 2021-B143.
The magnitudes graphs are made with Comet for Windows.

---------------------------------------------------------------------

Copyright(C) Seiichi Yoshida (comet@aerith.net). All rights reserved.